Total_Precipitation_Accumulation
1.65 1.68 1.64 1.68 1.60 1.41 1.32 1.28 1.29 1.10 0.98 0.80 0.57 0.41 0.40 0.37 0.39 0.36 0.33 0.28 0.23 0.19 0.16 0.12 0.09 0.09 0.10 0.12 0.14 0.14 0.18 0.28 0.60 0.91 0.77 0.63 0.59 0.66
1.43 1.45 1.50 1.56 1.61 1.58 1.52 1.41 1.32 1.20 1.09 0.92 0.68 0.46 0.46 0.47 0.45 0.38 0.39 0.40 0.30 0.23 0.18 0.15 0.12 0.09 0.08 0.08 0.07 0.05 0.05 0.09 0.29 0.77 0.88 0.75 0.74 0.84
1.27 1.27 1.38 1.43 1.58 1.64 1.58 1.48 1.40 1.29 1.13 1.04 0.81 0.56 0.48 0.48 0.50 0.44 0.41 0.39 0.35 0.30 0.24 0.20 0.17 0.15 0.13 0.10 0.08 0.06 0.05 0.04 0.07 0.20 0.38 0.47 0.64 0.85
1.10 1.08 1.18 1.27 1.38 1.51 1.59 1.47 1.40 1.30 1.25 1.20 0.99 0.75 0.62 0.57 0.51 0.47 0.41 0.40 0.41 0.41 0.33 0.29 0.27 0.25 0.23 0.20 0.16 0.12 0.10 0.07 0.06 0.07 0.15 0.26 0.34 0.47
0.91 0.92 0.96 1.03 1.12 1.24 1.36 1.45 1.41 1.32 1.33 1.31 1.12 0.88 0.69 0.59 0.57 0.51 0.44 0.47 0.44 0.41 0.39 0.35 0.31 0.29 0.27 0.27 0.26 0.23 0.18 0.15 0.12 0.11 0.11 0.14 0.20 0.23
0.68 0.69 0.74 0.77 0.81 0.94 1.08 1.23 1.36 1.40 1.42 1.40 1.28 1.02 0.81 0.66 0.59 0.61 0.63 0.57 0.53 0.45 0.43 0.41 0.41 0.37 0.32 0.29 0.26 0.25 0.22 0.21 0.18 0.15 0.13 0.12 0.11 0.12
0.67 0.60 0.56 0.57 0.62 0.69 0.80 1.02 1.18 1.30 1.37 1.38 1.33 1.17 0.98 0.84 0.69 0.65 0.68 0.72 0.74 0.65 0.58 0.51 0.45 0.37 0.32 0.26 0.21 0.19 0.17 0.16 0.14 0.12 0.09 0.08 0.08 0.08
0.68 0.68 0.66 0.61 0.50 0.43 0.47 0.60 0.80 0.99 1.13 1.21 1.24 1.15 0.99 0.89 0.84 0.77 0.68 0.65 0.71 0.71 0.70 0.71 0.61 0.51 0.45 0.37 0.32 0.26 0.21 0.18 0.17 0.15 0.14 0.13 0.12 0.12
0.64 0.64 0.69 0.68 0.71 0.58 0.50 0.47 0.50 0.61 0.78 0.93 0.99 0.98 1.03 0.95 0.81 0.70 0.62 0.58 0.56 0.54 0.57 0.63 0.61 0.55 0.49 0.47 0.46 0.40 0.35 0.30 0.27 0.24 0.21 0.18 0.15 0.14
0.68 0.67 0.72 0.75 0.74 0.83 0.79 0.70 0.63 0.63 0.72 0.59 0.63 0.84 0.91 0.88 0.81 0.74 0.69 0.62 0.53 0.46 0.43 0.49 0.50 0.49 0.42 0.38 0.38 0.34 0.31 0.28 0.26 0.24 0.24 0.23 0.23 0.22
0.67 0.65 0.69 0.70 0.89 0.94 0.82 0.80 0.75 0.68 0.86 0.84 0.80 0.76 0.72 0.66 0.65 0.70 0.70 0.63 0.59 0.51 0.41 0.37 0.39 0.43 0.43 0.38 0.36 0.34 0.29 0.27 0.25 0.25 0.25 0.26 0.26 0.23
0.72 0.65 0.83 0.80 0.82 0.75 0.61 0.74 0.80 0.72 0.66 0.66 0.67 0.64 0.57 0.52 0.53 0.55 0.64 0.62 0.56 0.55 0.46 0.39 0.38 0.38 0.38 0.36 0.33 0.32 0.30 0.29 0.27 0.27 0.27 0.27 0.26 0.21
0.81 0.79 0.75 0.81 0.64 0.60 0.59 0.63 0.77 0.76 0.71 0.74 0.72 0.63 0.51 0.46 0.44 0.45 0.50 0.52 0.51 0.51 0.42 0.33 0.34 0.33 0.30 0.27 0.26 0.25 0.24 0.22 0.19 0.18 0.18 0.20 0.20 0.19
0.75 0.67 0.61 0.64 0.48 0.43 0.42 0.51 0.62 0.63 0.61 0.68 0.69 0.63 0.51 0.44 0.41 0.39 0.39 0.39 0.37 0.37 0.36 0.31 0.30 0.30 0.27 0.21 0.20 0.19 0.18 0.17 0.16 0.15 0.13 0.14 0.15 0.16
0.55 0.55 0.47 0.41 0.36 0.32 0.34 0.41 0.44 0.53 0.63 0.67 0.60 0.53 0.49 0.47 0.44 0.41 0.35 0.31 0.28 0.26 0.25 0.26 0.30 0.34 0.32 0.25 0.19 0.18 0.17 0.16 0.14 0.14 0.14 0.13 0.11 0.11
0.34 0.29 0.27 0.28 0.31 0.32 0.32 0.33 0.36 0.52 0.67 0.66 0.59 0.53 0.52 0.51 0.49 0.46 0.44 0.40 0.36 0.35 0.30 0.29 0.32 0.37 0.37 0.33 0.28 0.24 0.23 0.22 0.20 0.19 0.18 0.17 0.15 0.13
0.48 0.37 0.29 0.27 0.28 0.31 0.33 0.38 0.49 0.58 0.65 0.58 0.54 0.49 0.48 0.52 0.51 0.49 0.49 0.47 0.43 0.41 0.44 0.45 0.42 0.41 0.40 0.40 0.41 0.38 0.37 0.35 0.33 0.31 0.26 0.20 0.17 0.17
0.48 0.48 0.46 0.46 0.45 0.42 0.40 0.37 0.39 0.45 0.50 0.54 0.54 0.50 0.45 0.46 0.45 0.44 0.43 0.42 0.41 0.41 0.39 0.41 0.45 0.48 0.47 0.44 0.38 0.37 0.42 0.44 0.44 0.41 0.34 0.26 0.21 0.23
0.41 0.43 0.43 0.43 0.42 0.38 0.34 0.32 0.29 0.29 0.36 0.43 0.50 0.53 0.52 0.49 0.46 0.42 0.37 0.35 0.33 0.32 0.31 0.30 0.32 0.35 0.39 0.40 0.40 0.32 0.31 0.37 0.38 0.35 0.32 0.29 0.25 0.27
0.26 0.30 0.29 0.29 0.28 0.26 0.23 0.20 0.19 0.21 0.22 0.25 0.32 0.40 0.51 0.58 0.58 0.51 0.47 0.42 0.38 0.34 0.32 0.27 0.24 0.22 0.23 0.25 0.26 0.26 0.26 0.27 0.29 0.27 0.25 0.24 0.22 0.22
0.10 0.12 0.12 0.13 0.15 0.14 0.13 0.12 0.13 0.15 0.17 0.18 0.20 0.23 0.29 0.39 0.49 0.53 0.54 0.58 0.55 0.51 0.47 0.40 0.34 0.32 0.26 0.24 0.22 0.18 0.18 0.19 0.17 0.15 0.15 0.16 0.16 0.16
0.04 0.05 0.06 0.06 0.07 0.08 0.07 0.06 0.06 0.08 0.10 0.11 0.12 0.14 0.17 0.21 0.28 0.36 0.40 0.42 0.45 0.47 0.50 0.51 0.49 0.46 0.40 0.35 0.29 0.23 0.19 0.18 0.20 0.21 0.17 0.15 0.14 0.14
0.03 0.04 0.04 0.04 0.05 0.07 0.11 0.12 0.09 0.07 0.08 0.09 0.10 0.11 0.11 0.13 0.16 0.21 0.25 0.28 0.32 0.35 0.38 0.40 0.39 0.36 0.35 0.34 0.34 0.33 0.29 0.24 0.22 0.23 0.23 0.28 0.26 0.19